This demonstration page uses our WeatherBlox Daily Observations layout. Learn more.

36.17497, -115.13722

Hourly Observations for April 4, 2015

Temp ( °F °C ) Dew Point ( °F °C ) Humidity (%) Winds ( mph kmh ) Pressure ( in mb ) Visibility ( mi km ) Precip ( " mm )
12:53 am 00:53 Clear 53 11.7 10 -12.2 18 18 NW 7 11 30.08 1019 10 16.0934 0 0
1:53 am 01:53 Clear 51 10.6 11 -11.7 20 20 NNW 6 9 30.06 1018 10 16.0934 0 0
2:53 am 02:53 Clear 53 11.7 11 -11.7 18 18 W 5 7 30.04 1017 10 16.0934 0 0
3:53 am 03:53 Clear 52 11.1 13 -10.6 21 21 W 5 7 30.03 1017 10 16.0934 0 0
4:53 am 04:53 Clear 50 10 10 -12.2 20 20 NW 6 9 30.03 1017 10 16.0934 0 0
5:53 am 05:53 Clear 50 10 12 -11.1 22 22 W 3 6 30.03 1017 10 16.0934 0 0
6:53 am 06:53 Sunny 48 8.9 14 -10 25 25 NW 5 7 30.05 1018 10 16.0934 0 0
7:53 am 07:53 Sunny 53 11.7 14 -10 21 21 Calm 30.06 1018 10 16.0934 0 0
8:53 am 08:53 Sunny 58 14.4 10 -12.2 15 15 Calm 30.05 1018 10 16.0934 0 0
9:53 am 09:53 Sunny 62 16.7 4 -15.6 10 10 Calm 30.05 1018 10 16.0934 0 0
10:53 am 10:53 Sunny 65 18.3 -2 -18.9 6 6 SE 5 7 30.04 1017 10 16.0934 0 0
11:53 am 11:53 Sunny 69 20.6 -9 -22.8 4 4 VRB 6 9 30.01 1016 10 16.0934 0 0
12:53 pm 12:53 Sunny 70 21.1 -8 -22.2 4 4 SSE 5 7 29.97 1015 10 16.0934 0 0
1:53 pm 13:53 Sunny 73 22.8 -5 -20.6 4 4 E 7 11 29.92 1013 10 16.0934 0 0
2:53 pm 14:53 Sunny 75 23.9 -5 -20.6 4 4 VRB 6 9 29.88 1012 10 16.0934 0 0
3:53 pm 15:53 Sunny 78 25.6 -3 -19.4 4 4 S 12 19 29.83 1010 10 16.0934 0 0
4:53 pm 16:53 Sunny 79 26.1 -3 -19.4 4 4 SSE 17 28 29.8 1009 10 16.0934 0 0
5:53 pm 17:53 Sunny 78 25.6 -5 -20.6 4 4 S 12 19 29.8 1009 10 16.0934 0 0
6:53 pm 18:53 Sunny 77 25 -7 -21.7 3 3 WSW 13 20 29.79 1009 10 16.0934 0 0
7:53 pm 19:53 Clear 73 22.8 -4 -20 4 4 SW 6 9 29.79 1009 10 16.0934 0 0
8:53 pm 20:53 Clear 71 21.7 0 -17.8 6 6 SW 8 13 29.78 1009 10 16.0934 0 0
9:53 pm 21:53 Clear 69 20.6 1 -17.2 6 6 SW 7 11 29.78 1009 10 16.0934 0 0
10:53 pm 22:53 Clear 68 20 3 -16.1 7 7 W 5 7 29.78 1008 10 16.0934 0 0
11:53 pm 23:53 Clear 67 19.4 3 -16.1 8 8 S 8 13 29.76 1008 10 16.0934 0 0

Powered by AerisWeather